Weather History for KFMY - March, 2011

Change the Weather History Date:

Friday, March 18, 2011

  Actual Average Record
Temperature  
Mean Temperature 74 °F 70 °F  
Max Temperature 86 °F 81 °F 90 °F (1961)
Min Temperature 61 °F 60 °F 38 °F (1916)
Degree Days  
Heating Degree Days 0 1  
Month to date heating degree days 10 18  
Since 1 July heating degree days 430 278  
Cooling Degree Days 9 6  
Month to date cooling degree days 83 94  
Year to date cooling degree days 265 279  
Growing Degree Days 22 (Base 50)    
Moisture  
Dew Point 55 °F    
Average Humidity 70    
Maximum Humidity 100    
Minimum Humidity 15    
Precipitation  
Precipitation 0.00 in 0.09 in 1.39 in (1959)
Month to date precipitation 0.80 1.69  
Year to date precipitation 4.21 5.78  
Sea Level Pressure  
Sea Level Pressure 30.24 in    
Wind  
Wind Speed 6 mph (ENE)    
Max Wind Speed 15 mph    
Max Gust Speed 20 mph    
Visibility 8 miles    
Events Fog    
T = Trace of Precipitation, MM = Missing Value Source: NWS Daily Summary

Daily Weather History Graph

Daily Weather History Graph

Search for Another Location

Airport or City:

Trip Planner

Search our weather history database for the weather conditions in past years. The results will help you decide how hot, cold, wet, or windy it might be!

Date:

Astronomy

Mar. 18, 2011 Rise Set
Actual Time 7:33 AM EDT 7:37 PM EDT
Civil Twilight 7:10 AM EDT 8:00 PM EDT
Nautical Twilight 6:43 AM EDT 8:27 PM EDT
Astronomical Twilight 6:16 AM EDT 8:54 PM EDT
Moon 6:44 PM EDT (3/18) 6:25 AM EDT (3/18)
Length of Visible Light 12h 49m
Length of Day
12h 03m
Waxing Gibbous, 98% of the Moon is Illuminated
Mar 18
Waxing Gibbous
Mar 19
Full
Mar 26
Last Quarter
Apr 3
New
Apr 11
First Quarter

Hourly Weather History & Observations

Time (EDT) Temp. Dew Point Humidity Pressure Visibility Wind Dir Wind Speed Gust Speed Precip Events Conditions
12:53 AM 66.9 °F 59.0 °F 76% 30.25 in 10.0 mi East 5.8 mph - N/A   Clear
1:53 AM 64.9 °F 60.1 °F 84% 30.24 in 10.0 mi East 3.5 mph - N/A   Clear
2:53 AM 63.0 °F 59.0 °F 87% 30.22 in 10.0 mi Calm Calm - N/A   Clear
3:53 AM 62.1 °F 59.0 °F 90% 30.21 in 10.0 mi Calm Calm - N/A   Clear
4:53 AM 61.0 °F 59.0 °F 93% 30.21 in 9.0 mi ENE 3.5 mph - N/A   Clear
5:53 AM 62.1 °F 59.0 °F 90% 30.21 in 9.0 mi ENE 4.6 mph - N/A   Partly Cloudy
6:24 AM 62.6 °F 60.8 °F 94% 30.21 in 8.0 mi ENE 3.5 mph - N/A   Mostly Cloudy
6:47 AM 62.6 °F 60.8 °F 94% 30.22 in 1.8 mi ENE 5.8 mph - N/A   Overcast
6:53 AM 62.1 °F 61.0 °F 96% 30.23 in 0.5 mi East 3.5 mph - N/A Fog Fog
7:01 AM 62.6 °F 60.8 °F 94% 30.23 in 0.2 mi ENE 4.6 mph - N/A Fog Fog
7:53 AM 62.1 °F 61.0 °F 96% 30.25 in 0.2 mi ENE 4.6 mph - N/A Fog Fog
8:53 AM 62.1 °F 62.1 °F 100% 30.27 in 0.2 mi Calm Calm - N/A Fog Fog
9:24 AM 64.4 °F 64.4 °F 100% 30.28 in 2.0 mi East 3.5 mph - N/A   Overcast
9:32 AM 64.4 °F 62.6 °F 94% 30.28 in 5.0 mi East 4.6 mph - N/A   Mostly Cloudy
9:46 AM 64.4 °F 62.6 °F 94% 30.28 in 6.0 mi Calm Calm - N/A   Scattered Clouds
9:53 AM 68.0 °F 63.0 °F 84% 30.29 in 8.0 mi ENE 3.5 mph - N/A   Partly Cloudy
10:53 AM 73.9 °F 59.0 °F 59% 30.29 in 10.0 mi ESE 8.1 mph - N/A   Clear
11:53 AM 78.1 °F 46.9 °F 33% 30.28 in 10.0 mi East 8.1 mph - N/A   Clear
12:53 PM 82.0 °F 43.0 °F 25% 30.26 in 10.0 mi NE 12.7 mph 19.6 mph N/A   Clear
1:53 PM 84.0 °F 43.0 °F 24% 30.24 in 10.0 mi NE 11.5 mph 16.1 mph N/A   Clear
2:53 PM 84.9 °F 41.0 °F 21% 30.20 in 10.0 mi East 11.5 mph 19.6 mph N/A   Clear
3:53 PM 84.9 °F 37.0 °F 18% 30.19 in 10.0 mi ENE 12.7 mph 17.3 mph N/A   Clear
4:53 PM 84.9 °F 32.0 °F 15% 30.18 in 10.0 mi ENE 9.2 mph - N/A   Clear
6:53 PM 82.0 °F 39.0 °F 22% 30.18 in 10.0 mi East 6.9 mph - N/A   Clear
7:53 PM 73.0 °F 57.9 °F 59% 30.19 in 10.0 mi WNW 10.4 mph - N/A   Clear
8:53 PM 71.1 °F 60.1 °F 68% 30.21 in 10.0 mi NW 4.6 mph - N/A   Clear
9:53 PM 69.1 °F 61.0 °F 75% 30.23 in 10.0 mi Calm Calm - N/A   Clear
10:53 PM 66.9 °F 60.1 °F 79% 30.24 in 10.0 mi Calm Calm - N/A   Clear
11:53 PM 64.9 °F 52.0 °F 63% 30.25 in 10.0 mi East 3.5 mph - N/A   Clear